Location: Svitavy
(49.7500°N, 16.4667°E)
Time: 16:52:08
(UTC+01:00)

ISS - Visible Passes

Search period start: 09 December 2023 00:00
Search period end: 19 December 2023 00:00
Orbit: 415 x 417 km, 51.6° (Epoch: 09 December)

Date Brightness Start Highest point End Pass type
(mag) Time Alt. Az. Time Alt. Az. Time Alt. Az.
15 Dec -0.6 06:58:03 10° S 07:00:21 18° SE 07:02:41 10° E visible
16 Dec -0.3 06:10:27 10° SSE 06:11:36 11° SE 06:12:45 10° ESE visible
17 Dec -2.0 06:55:39 10° SW 06:58:45 35° SSE 07:01:50 10° E visible
18 Dec -1.4 06:07:02 10° SSW 06:09:48 24° SE 06:12:33 10° E visible
